Showing default

QIANFAN-62, 62792

Orbit data source: Space-Track

QIANFAN-62, 62792 is a Chinese payload satellite in LEO that was launched on Thu, 23 Jan 2025 UTC via a CHANG ZHENG 6A launch vehicle from the Taiyaun Space Center, China (TSC). Payload-class satellites include a variety of spacecraft equipped with specific instruments for various scientific and technological missions. These include communications satellites like Starlink; space stations such as the ISS; scientific satellites like the Hubble; Earth observation satellites from companies like Planet Labs, Umbra, and HawkEye 360; GPS; miniature CubeSats for education and research; and military/defense satellites.

Loading next visibility...
Identifier
62792, 2025-016H
Orbit
LEO
Last TLE update
12 hours ago
Origin
Manufacturer
SECM
Mission
Operational Commercial Communications
Bus & Motor
QIANFAN, Unknown motor
Mass
267 kg wet, ~267 kg dry
Launch date (UTC)
2025-01-23 (5 months ago)
Launch vehicle
CHANG ZHENG 6A
Launch site
Taiyaun Space Center, China (TSC)
Object type
Payload
Rocket body
Debris
Shape & HBR
Box + 1 Pan, 10 m
Radar Cross Section
13.200 m², Large (>1 m²)

Expand to show TLE details & history

TLE from 12 hours ago
0 QIANFAN-62
1 62792U 25016H   25181.87410594  .00000103  00000-0  14098-3 0  9994
2 62792  88.9856 120.0967 0018424  97.0808 263.2439 13.50954939 24977
Epoch: 2025-06-30T20:58Z
TLE epoch observation values (Epoch: 2025-06-30T20:58:42.753Z)
Latitude
-0.00001°
Longitude
-113.75909°
Altitude
1,073.34 km
Speed
7.315 km/s
True Right ascension
08h 00m 23s
True Declination
0° 00' 00"
Sunlit
Object was in daylight at epoch
Visualization orbit readout
Latitude
-50.72329°
Longitude
-115.04538°
Altitude
1,099.879 km
Speed
7.296 km/s
Apparent Right ascension
08h 22m 18s
Apparent Declination
-45° 46' 08"
Sunlit
Object is in daylight
Visualization observer readout
Local Sidereal Time
20:48:30
Azimuth
142.814° SSE
Elevation
-82.434°
Doppler factor
1
Orbital elements
Apogee altitude
1,079.513 km
Perigee altitude
1,052.084 km
Semi-major axis
7,443.935 km
Eccentricity
0.00184
Inclination
88.9856°
RAAN
120.0967°
Arg. of periapsis
97.0808°
True anomaly
Unknown
Mean anomaly
263.2439°
Eccentric anomaly
Unknown
Mean motion
3.3794 °/min
Orbital period
106.53 mins
BSTAR
0.00014098
Loading maneuver chart data...
Loading SW <> Apogee altitude chart data...
Loading historical data...
Loading historical data...
Loading historical data...
Loading historical data...
Loading historical data...
Loading historical data...
Loading historical data...

QIANFAN-62 Visibility forecast

Observer location: undefined°, undefined°

Span
Click to sort rows by Start time (UTC) header in descending order
Start Az.
Max El. time (UTC)
Max El. Az.
Max El.
End time (UTC)
End Az.
4 mins2025-07-01 10:03:16.452Z310.701° NW2025-07-01 10:05:16.452Z292.106° WNW12.657°2025-07-01 10:07:16.452Z273.062° WNW
11 mins2025-07-01 20:12:16.452Z172.196° S2025-07-01 20:17:16.452Z51.733° ENE44.535°2025-07-01 20:23:16.452Z1.327° NNE
5 mins2025-07-01 22:02:16.452Z264.561° W2025-07-01 22:04:16.452Z284.465° WNW14.468°2025-07-01 22:07:16.452Z313.346° NW
10 mins2025-07-02 07:22:16.452Z26.265° NE2025-07-02 07:26:16.452Z81.192° E32.194°2025-07-02 07:32:16.452Z150.953° SSE
|